Salina, KS

9:58 PM CDT on October 23, 2019 (GMT -0500)
Salina Municipal

Weather History for KSLN - September, 2019

Change the Weather History Date:

Tuesday, September 17, 2019

  Actual Average Record
Temperature  
Mean Temperature 82 °F 70 °F  
Max Temperature 92 °F 81 °F 103 °F (1953)
Min Temperature 72 °F 58 °F 34 °F (1903)
Degree Days  
Heating Degree Days 0 2  
Month to date heating degree days 0 11  
Since 1 July heating degree days 0 12  
Cooling Degree Days 17 6  
Month to date cooling degree days 235 148  
Year to date cooling degree days 1502 1555  
Growing Degree Days 32 (Base 50)    
Moisture  
Dew Point 65 °F    
Average Humidity 59    
Maximum Humidity 79    
Minimum Humidity 38    
Precipitation  
Precipitation 0.00 in 0.09 in 1.92 in (1978)
Month to date precipitation 0.37 1.56  
Year to date precipitation 31.35 25.90  
Sea Level Pressure  
Sea Level Pressure 29.90 in    
Wind  
Wind Speed 15 mph (South)    
Max Wind Speed 29 mph    
Max Gust Speed 37 mph    
Visibility 10 miles    
Events      
T = Trace of Precipitation, MM = Missing Value Source: NWS Daily Summary

Daily Weather History Graph

Daily Weather History Graph

Search for Another Location

Airport or City:

Astronomy

Sep. 17, 2019 Rise Set
Actual Time 7:13 AM CDT 7:35 PM CDT
Civil Twilight 6:47 AM CDT 8:02 PM CDT
Nautical Twilight 6:15 AM CDT 8:33 PM CDT
Astronomical Twilight 5:43 AM CDT 9:05 PM CDT
Moon 9:41 PM CDT (9/17) 10:17 AM CDT (9/17)
Length of Visible Light 13h 15m
Length of Day
12h 22m
Waning Gibbous, 89% of the Moon is Illuminated
Sep 17
Waning Gibbous
Sep 21
Last Quarter
Sep 28
New
Oct 5
First Quarter
Oct 13
Full

Hourly Weather History & Observations

Time (CDT) Temp. Heat Index Dew Point Humidity Pressure Visibility Wind Dir Wind Speed Gust Speed Precip Events Conditions
12:53 AM 78.1 °F - 66.9 °F 68% 29.94 in 10.0 mi SSE 12.7 mph - N/A   Clear
1:53 AM 77.0 °F - 66.0 °F 69% 29.94 in 10.0 mi South 12.7 mph - N/A   Clear
2:53 AM 75.9 °F - 66.9 °F 74% 29.94 in 10.0 mi South 9.2 mph - N/A   Clear
3:53 AM 75.0 °F - 66.0 °F 73% 29.93 in 10.0 mi South 12.7 mph - N/A   Clear
4:53 AM 73.9 °F - 66.0 °F 76% 29.93 in 10.0 mi South 10.4 mph - N/A   Clear
5:53 AM 73.9 °F - 66.0 °F 76% 29.93 in 10.0 mi South 10.4 mph - N/A   Clear
6:53 AM 73.0 °F - 64.9 °F 76% 29.95 in 10.0 mi South 10.4 mph - N/A   Clear
7:53 AM 73.0 °F - 64.9 °F 76% 29.96 in 10.0 mi South 8.1 mph - N/A   Clear
8:53 AM 75.9 °F - 66.0 °F 71% 29.96 in 10.0 mi South 13.8 mph - N/A   Clear
9:53 AM 82.0 °F 84.1 °F 66.0 °F 58% 29.95 in 10.0 mi South 16.1 mph 26.5 mph N/A   Clear
10:53 AM 84.9 °F 87.1 °F 66.0 °F 53% 29.95 in 10.0 mi South 17.3 mph 31.1 mph N/A   Clear
11:53 AM 88.0 °F 89.6 °F 64.9 °F 46% 29.93 in 10.0 mi South 20.7 mph 34.5 mph N/A   Clear
12:53 PM 90.0 °F 92.4 °F 66.0 °F 45% 29.92 in 10.0 mi South 23.0 mph 32.2 mph N/A   Clear
1:53 PM 90.0 °F 92.4 °F 66.0 °F 45% 29.91 in 10.0 mi South 18.4 mph 29.9 mph N/A   Clear
2:53 PM 91.9 °F 93.3 °F 64.0 °F 39% 29.88 in 10.0 mi South 17.3 mph 34.5 mph N/A   Partly Cloudy
3:53 PM 91.9 °F 92.9 °F 63.0 °F 38% 29.86 in 10.0 mi South 17.3 mph 34.5 mph N/A   Clear
4:53 PM 91.0 °F 91.5 °F 62.1 °F 38% 29.84 in 10.0 mi SSE 21.9 mph 32.2 mph N/A   Clear
5:53 PM 90.0 °F 90.6 °F 63.0 °F 40% 29.83 in 10.0 mi SSE 19.6 mph 32.2 mph N/A   Clear
6:53 PM 87.1 °F 87.8 °F 63.0 °F 44% 29.83 in 10.0 mi SSE 18.4 mph 28.8 mph N/A   Clear
7:53 PM 82.9 °F 84.0 °F 63.0 °F 51% 29.84 in 10.0 mi SSE 12.7 mph - 0.00 in   Clear
8:53 PM 80.1 °F 81.7 °F 64.0 °F 58% 29.86 in 10.0 mi SSE 11.5 mph - N/A   Clear
9:53 PM 79.0 °F - 66.0 °F 64% 29.86 in 10.0 mi SSE 11.5 mph - N/A   Clear
10:53 PM 78.1 °F - 66.0 °F 66% 29.87 in 10.0 mi SSE 11.5 mph - N/A   Clear
11:53 PM 77.0 °F - 66.0 °F 69% 29.86 in 10.0 mi SSE 10.4 mph - N/A   Clear